YAOGAN-40 03C

Last updated on Tue Sep 16 2025 00:02:08 GMT+0000 (Coordinated Universal Time)

1 65546U 25199C 25257.59959270 .00000526 00000+0 22193-3 0 9991 2 65546 85.9979 167.7374 0013346 263.6090 96.3580 14.23744231 1130
UTC large
Height (km)
Speed (km/s)
/
Latitude / Longitude
Inclination (degrees)
Orbital Period (minutes)
Azimuth
Elevation
Range (km)
Doppler Factor

Next 0 passes for location: London (51.5072 / 0.1276)

Sorry there are no passes over London.